TimeSAST,TemperatureF,Dew PointF,Humidity,Sea Level PressureIn,VisibilityMPH,Wind Direction,Wind SpeedMPH,Gust SpeedMPH,PrecipitationIn,Events,Conditions,WindDirDegrees,DateUTC
12:00 AM,50.0,46.4,87,30.27,-9999.0,North,2.3,-,N/A,,Clear,360,2013-04-03 22:00:00
1:00 AM,48.2,46.4,93,30.24,-9999.0,North,2.3,-,N/A,,Clear,10,2013-04-03 23:00:00
2:00 AM,49,46,84,30.26,12,NNE,2.3,,,,,20,2013-04-04 00:00:00
2:00 AM,48.2,44.6,87,30.24,-9999.0,North,3.5,-,N/A,,Clear,10,2013-04-04 00:00:00
3:00 AM,48.2,44.6,87,30.21,-9999.0,NNE,2.3,-,N/A,,Clear,30,2013-04-04 01:00:00
4:00 AM,48.2,44.6,87,30.18,-9999.0,Variable,1.2,-,N/A,,Clear,0,2013-04-04 02:00:00
5:00 AM,46,43,87,30.22,12,WNW,4.6,,,,,290,2013-04-04 03:00:00
5:00 AM,46.4,44.6,93,30.18,-9999.0,NNW,4.6,-,N/A,,Clear,330,2013-04-04 03:00:00
6:00 AM,48.2,44.6,87,30.18,-9999.0,Calm,Calm,-,N/A,,Clear,0,2013-04-04 04:00:00
7:00 AM,48.2,44.6,87,30.18,-9999.0,NNW,3.5,-,N/A,,Clear,340,2013-04-04 05:00:00
8:00 AM,54,49,77,30.21,12,Calm,Calm,,,,,,2013-04-04 06:00:00
8:00 AM,55.4,48.2,77,30.18,-9999.0,Variable,1.2,-,N/A,,Clear,0,2013-04-04 06:00:00
9:00 AM,60.8,53.6,77,30.21,-9999.0,SSE,3.5,-,N/A,,Clear,150,2013-04-04 07:00:00
10:00 AM,66.2,51.8,60,30.21,-9999.0,Variable,2.3,-,N/A,,Clear,0,2013-04-04 08:00:00
11:00 AM,71,53,41,30.19,12,ESE,4.6,,,,Clear,120,2013-04-04 09:00:00
11:00 AM,71.6,51.8,50,30.18,-9999.0,ESE,4.6,-,N/A,,Clear,120,2013-04-04 09:00:00
12:00 PM,71.6,50.0,46,30.15,-9999.0,SE,6.9,-,N/A,,Clear,130,2013-04-04 10:00:00
1:00 PM,71.6,50.0,46,30.15,-9999.0,SE,11.5,-,N/A,,Clear,140,2013-04-04 11:00:00
2:00 PM,70,49,36,30.14,12,ESE,10.4,,,,,110,2013-04-04 12:00:00
2:00 PM,69.8,48.2,46,30.12,-9999.0,SE,9.2,-,N/A,,Clear,130,2013-04-04 12:00:00
3:00 PM,71.6,48.2,43,30.12,-9999.0,ESE,8.1,-,N/A,,Clear,120,2013-04-04 13:00:00
4:00 PM,71.6,48.2,43,30.12,-9999.0,ESE,8.1,-,N/A,,Clear,110,2013-04-04 14:00:00
5:00 PM,68,46,34,30.13,12,East,9.2,,,,,90,2013-04-04 15:00:00
5:00 PM,68.0,46.4,46,30.12,-9999.0,East,9.2,-,N/A,,Clear,100,2013-04-04 15:00:00
6:00 PM,64.4,46.4,52,30.12,-9999.0,East,8.1,-,N/A,,Clear,100,2013-04-04 16:00:00
7:00 PM,59.0,46.4,63,30.12,-9999.0,East,4.6,-,N/A,,Clear,80,2013-04-04 17:00:00
8:00 PM,59,49,62,30.12,12,NNE,3.5,,,,,30,2013-04-04 18:00:00
8:00 PM,59.0,50.0,72,30.09,-9999.0,NNE,4.6,-,N/A,,Clear,20,2013-04-04 18:00:00
9:00 PM,57.2,50.0,77,30.12,-9999.0,NNW,2.3,-,N/A,,Clear,340,2013-04-04 19:00:00
10:00 PM,55.4,50.0,82,30.12,-9999.0,North,3.5,-,N/A,,Clear,10,2013-04-04 20:00:00
11:00 PM,53.6,50.0,88,30.12,-9999.0,North,4.6,-,N/A,,Clear,360,2013-04-04 21:00:00